World > North America > United States > New York

North Pharsalia, New York Regional Weather

Lat: 42.61N, Lon: 75.7W
Wx Zone: NYZ045Web Search

Helpful Tip: Type the letters wx in the search engine next time you need to find us.

Feedback


°F Click to change North Pharsalia hourly weather to Imperial units.Click to change North Pharsalia hourly weather to Metric units. °C
North Pharsalia Weather Map
UTC Time: 5/18/2021, 02:40
Your Time:

North Pharsalia, NY Regional Weather

Expires:202105180300;;286763
ASUS41 KALY 180210
RWRALY

NEW YORK STATE HOURLY WEATHER ROUNDUP
NATIONAL WEATHER SERVICE ALBANY NY
1000 PM EDT MON MAY 17 2021

NOTE: "FAIR" INDICATES FEW OR NO CLOUDS BELOW 12,000 FEET WITH NO
SIGNIFICANT WEATHER AND/OR NO OBSTRUCTIONS TO VISIBILITY.


NYZ005>009-017-018-044>046-055-056-180300-
CENTRAL

  
CITY           SKY/WX    TMP DP  RH WIND       PRES   REMARKS
FULTON         FAIR      56  43  61 CALM      30.27R                  
SYRACUSE       FAIR      64  40  41 CALM      30.26R                  
ROME           FAIR      59  45  59 CALM      30.26R                  
ELMIRA         FAIR      54  43  66 NW3       30.27R                  
BINGHAMTON     FAIR      64  36  35 SW5       30.28R                  
MONTICELLO     FAIR      54  53  97 CALM      30.31R                  
$$


SKY/WX - Weather  TMP - Temperature  DP - Dew Point  RH - Relative Humidity
WIND - Wind Direction/Speed PRES - Barometric Pressure VSB - Visibility
WCI - Wind Chill Index E13G22 Wind - East Wind 13 mph/Gusts of 22 mph